Location: *
(29.1167°S, 130.0000°E)
Time: 22:39:56
(UTC+00:00)

CZ-4C R/B - Pass Details

Date: 21 July 2019
Orbit: 658 x 1344 km, 63.4° (Epoch: 20 August)

Event Time Altitude Azimuth Distance (km) Brightness Sun altitude
Rises 08:54:01 0° 340° (NNW) 4,346 6.6 -3.1°
Reaches altitude 10° 08:56:56 10° 342° (NNW) 3,371 5.9 -3.7°
Maximum altitude 09:05:13 71° 64° (ENE) 1,341 3.1 -5.4°
Drops below altitude 10° 09:12:47 10° 146° (SSE) 3,086 4.6 -7.0°
Sets 09:15:21 0° 148° (SSE) 3,963 5.2 -7.5°
